User: anonymous   Login
Location: D�derode
(51.8092°N, 10.1065°E)
Time: 23:31:27
(UTC+00:00)
Language:

Cosmos 1470 Rocket - Orbit

View from above orbital plane
View from above orbital plane
View from above satellite
View from above satellite

Ground track
Ground track

The orbit data is extracted from the following two-line orbital elements,

1 14148U 83061B   21061.28811706  .00000072  00000-0  57636-5 0  9990
2 14148  82.5159  81.2088 0021387 185.3339 185.7185 14.83367379 35576
Epoch (UTC): 02 March 2021 06:54:53
Eccentricity: 0.0021387
inclination: 82.5159°
perigee height: 604 km
apogee height: 633 km
right ascension of ascending node: 81.2088°
argument of perigee: 185.3339°
revolutions per day: 14.83367379
mean anomaly at epoch: 185.7185°
orbit number at epoch: 3557

The dashed part of the orbit path shows where the satellite is in the earth's shadow,  

DLR